Wind_Speed
5 4 5 5 6 6 7 9 9 9 10 13 14 14 13 13 15 15 15 14 15 15 15 14 14 14 13 12 12 12 11 11 11 11 11 11 11 10 10 10 10 10 11 10
5 5 6 6 7 8 9 10 10 10 11 14 14 13 14 14 14 15 15 14 14 14 15 16 15 15 13 12 12 11 11 10 10 11 11 11 11 11 11 10 10 11 11 11
6 5 7 8 8 9 10 12 12 12 14 14 15 14 14 13 13 14 13 13 13 14 14 14 13 13 12 13 12 12 11 10 10 11 11 11 11 11 11 11 10 11 11 11
7 6 8 9 10 11 12 13 13 13 14 14 14 15 13 14 13 13 13 13 14 14 13 13 13 12 12 13 13 12 11 11 10 10 10 9 10 10 10 11 10 10 11 11
8 8 9 10 10 12 12 13 14 14 14 14 14 15 13 13 14 13 13 13 14 14 14 14 13 12 12 12 13 12 12 11 11 10 10 10 10 10 10 10 10 11 11 11
8 9 10 11 11 13 13 14 15 15 15 15 14 15 13 12 12 13 13 12 13 14 15 15 14 13 12 12 13 13 13 12 11 10 10 10 10 10 10 10 11 11 11 11
9 10 11 12 14 13 14 16 16 15 15 13 13 15 13 12 12 12 12 12 12 13 14 14 13 12 11 12 12 12 12 12 11 11 11 10 10 11 10 11 11 11 11 12
13 11 12 13 15 15 15 16 15 15 14 13 12 14 12 11 11 11 11 11 11 12 13 13 13 11 10 11 12 12 11 11 11 11 11 11 11 11 10 10 11 12 12 12
15 13 13 14 15 15 15 15 14 15 14 14 13 12 10 11 10 10 10 11 11 12 12 13 12 11 10 10 10 11 11 10 10 10 10 11 11 11 11 11 12 12 11 12
15 15 14 14 15 15 16 15 14 14 15 15 13 12 11 12 12 11 12 12 13 13 12 13 12 11 10 10 11 11 10 10 10 11 11 11 12 12 12 12 12 11 11 11
15 15 14 15 15 16 16 16 15 14 15 16 15 13 12 13 13 13 14 14 13 12 12 12 12 12 10 11 11 11 10 10 10 10 11 11 11 11 11 12 12 11 10 10
16 16 15 16 15 16 17 17 16 16 16 16 16 14 14 14 14 13 14 14 13 13 13 13 12 12 12 11 11 11 10 10 10 10 10 11 11 11 11 11 11 11 11 11
18 18 17 16 16 17 17 17 17 17 17 18 17 15 15 16 15 15 15 15 15 14 13 13 13 14 13 12 11 11 11 11 10 10 10 10 11 11 11 11 11 11 11 12
21 21 20 18 17 18 18 17 17 18 18 18 17 16 15 17 17 17 17 17 17 14 14 13 13 13 12 11 11 10 11 11 11 10 11 11 11 12 11 11 11 12 12 13
22 22 21 21 19 20 20 19 19 19 19 20 18 18 17 18 18 18 18 17 16 15 14 14 13 11 11 11 11 11 11 11 11 11 11 11 12 11 11 11 12 13 13 13
22 22 22 22 21 22 21 21 21 20 20 20 20 19 19 19 19 18 18 17 17 16 15 14 13 12 11 11 12 12 12 12 12 12 12 12 12 11 11 12 12 13 14 14
24 24 24 23 23 23 23 21 21 22 22 21 21 20 19 19 19 19 19 19 18 18 17 15 14 13 13 12 12 13 14 13 13 13 12 12 12 12 12 13 13 14 15 15
25 26 26 25 25 26 23 22 22 23 23 23 23 22 20 20 20 19 19 20 20 19 18 17 15 14 14 14 14 14 14 14 14 14 14 13 13 14 14 14 14 14 15 15
27 26 26 27 27 27 24 23 24 24 24 24 24 23 22 21 21 21 20 19 19 19 18 18 17 16 16 16 15 16 16 16 15 15 15 15 15 15 15 15 15 15 15 15
28 28 28 28 28 27 24 23 25 25 25 24 24 24 24 22 22 21 21 20 20 19 19 19 19 18 17 17 17 17 18 17 16 16 16 16 16 16 16 16 16 17 16 15
29 29 30 29 28 27 25 25 25 26 25 24 24 24 24 24 24 23 23 23 22 22 21 21 21 19 19 19 19 19 18 17 17 17 17 17 16 16 16 16 17 17 17 16
30 30 30 31 29 28 27 26 26 27 27 26 25 25 25 24 24 25 25 25 25 23 23 23 22 21 21 21 21 21 20 19 18 18 18 18 18 18 17 17 17 17 17 17
31 31 32 32 31 29 28 27 27 28 28 27 27 27 26 26 26 26 25 25 25 24 24 24 24 23 23 23 22 22 21 20 19 19 18 18 18 18 18 18 18 17 17 18
32 32 32 32 31 31 30 30 30 29 29 28 28 27 27 27 27 26 25 24 24 25 25 24 23 23 22 22 22 22 21 21 20 20 19 20 19 19 18 18 18 18 18 18
32 32 33 33 32 33 32 31 30 30 29 30 29 28 28 27 26 26 25 24 24 25 25 24 23 22 22 22 22 22 22 21 21 21 20 20 20 20 19 19 18 18 18 18
31 32 32 32 32 32 32 31 31 30 30 29 28 27 28 28 27 27 26 26 25 25 25 25 25 24 24 24 23 23 23 22 22 22 22 21 21 20 19 19 19 19 19 19
Wind_Direction
250 241 233 242 252 263 270 277 280 285 293 293 296 298 295 292 293 296 299 297 297 298 299 298 295 291 285 281 281 281 277 277 274 272 268 265 264 260 261 264 266 268 269 268
248 242 246 250 264 273 286 287 283 285 288 291 293 291 288 286 290 295 297 299 295 296 295 295 294 288 283 283 282 278 275 272 271 270 265 260 258 256 260 265 266 267 270 270
258 255 255 261 265 269 277 286 287 285 286 290 290 284 284 284 288 293 295 300 301 298 294 293 294 291 283 280 279 275 272 268 265 265 263 258 255 255 258 263 265 265 267 267
274 267 269 276 280 277 278 283 285 290 291 291 288 285 284 288 294 299 301 300 299 297 292 293 295 290 284 278 275 274 269 266 263 261 259 256 253 254 258 262 263 267 269 265
277 271 274 280 281 280 283 283 287 288 286 286 286 287 286 290 294 296 299 298 296 294 296 294 294 288 283 278 275 271 265 263 263 262 259 253 252 256 261 264 266 270 269 265
283 279 284 285 282 280 284 285 286 286 283 282 285 285 287 288 292 294 295 294 291 290 295 293 291 286 282 278 277 272 265 264 260 259 258 254 255 259 262 265 268 272 269 265
280 277 283 282 278 278 280 283 282 283 279 284 287 282 287 290 288 295 293 291 290 292 292 291 290 282 280 280 277 272 267 261 255 251 252 252 255 259 263 265 269 272 270 265
274 270 273 275 277 281 279 281 283 286 282 284 288 287 288 286 289 295 295 291 292 294 298 297 295 283 279 278 275 274 270 261 254 250 250 253 255 258 261 266 269 271 271 268
272 274 273 274 276 279 278 277 280 284 286 288 291 289 286 290 290 293 296 295 296 296 296 295 293 284 278 276 276 276 272 261 253 247 250 253 255 258 261 267 270 272 271 272
272 275 270 270 270 272 275 274 277 281 290 291 289 288 287 299 299 297 296 297 298 298 296 294 291 285 279 272 270 271 260 255 252 250 251 253 253 255 260 266 269 273 273 276
269 271 269 267 267 270 272 271 273 280 286 288 291 290 293 296 299 297 296 293 294 294 296 294 289 283 276 268 266 267 257 254 252 253 255 256 253 255 260 264 266 269 273 276
267 269 270 269 271 269 270 272 274 278 282 283 287 290 292 293 296 298 295 292 291 293 292 290 290 290 285 275 267 259 257 258 256 253 253 255 255 257 260 262 263 269 273 276
266 267 269 266 266 267 268 269 270 275 279 280 281 289 288 287 288 291 291 292 291 291 293 292 291 288 284 273 268 261 255 256 257 256 256 256 254 254 258 262 267 269 272 277
267 267 267 267 269 269 270 269 268 269 274 278 281 286 286 289 289 289 288 288 288 288 291 292 291 290 284 270 268 260 257 255 255 255 253 253 254 258 260 263 267 271 275 277
265 265 265 266 267 267 270 271 270 270 274 277 279 282 285 287 286 284 285 286 289 285 288 289 287 285 280 272 266 264 259 256 256 255 254 254 256 258 260 264 267 270 273 275
265 267 267 266 264 265 266 269 271 273 274 277 278 280 281 283 285 285 285 285 285 284 283 282 284 285 277 270 269 264 257 254 253 254 254 254 256 260 264 266 267 270 273 276
263 267 269 268 265 265 263 267 271 274 275 276 279 280 278 277 281 283 285 283 280 278 278 280 282 277 275 272 269 261 262 258 255 252 252 253 257 264 269 270 271 272 274 276
264 266 267 269 268 266 268 268 271 273 274 275 277 279 278 276 277 278 279 280 280 275 275 277 275 272 272 274 273 268 262 259 257 255 253 255 259 266 270 273 273 272 274 275
263 265 266 267 268 269 268 268 270 273 273 275 277 278 279 276 274 273 275 278 279 275 275 273 271 272 272 272 271 270 269 267 262 258 256 257 260 264 270 272 272 271 272 272
260 261 263 267 268 268 270 269 270 271 272 274 276 276 276 275 271 271 272 274 275 274 272 270 271 272 273 271 268 269 271 270 266 261 259 261 261 263 265 267 268 268 268 267
258 259 261 264 267 267 269 267 267 268 271 272 274 276 276 276 275 273 270 272 271 271 271 270 270 271 271 269 269 269 270 268 265 262 262 263 263 262 264 266 269 267 264 265
258 259 260 263 265 268 269 267 266 268 269 269 271 273 275 276 276 273 271 269 269 269 268 268 268 268 269 267 267 266 263 263 263 262 263 265 265 264 264 265 266 266 263 263
259 260 260 262 264 266 266 266 266 267 267 268 269 270 272 274 276 276 274 270 267 266 266 268 266 264 266 266 266 264 262 261 261 261 262 263 264 265 266 267 267 265 264 263
257 259 260 262 262 264 266 266 264 265 267 268 268 267 270 272 273 274 272 268 268 267 266 265 264 262 263 263 262 261 260 260 258 258 260 263 265 266 268 270 270 267 262 258
257 258 260 263 263 264 264 264 263 264 265 266 266 265 268 271 273 273 271 271 271 268 266 264 263 263 262 263 262 262 260 258 258 258 259 262 264 266 265 264 265 264 262 260
257 257 259 262 263 264 264 263 261 262 263 265 266 267 267 268 269 270 271 271 271 268 265 264 264 262 261 260 261 260 259 259 259 259 260 261 261 260 261 263 263 262 260 260
Height
5862 5863 5862 5862 5862 5862 5861 5861 5861 5861 5861 5859 5858 5858 5857 5856 5855 5854 5853 5852 5852 5851 5850 5848 5847 5846 5845 5845 5845 5844 5843 5844 5844 5844 5844 5844 5844 5845 5845 5846 5847 5847 5847 5847
5861 5861 5861 5860 5859 5859 5859 5858 5858 5858 5858 5857 5855 5855 5854 5853 5852 5851 5850 5849 5848 5847 5846 5845 5843 5842 5842 5842 5841 5841 5841 5840 5841 5841 5841 5841 5842 5842 5843 5843 5844 5844 5844 5844
5859 5860 5858 5857 5857 5856 5857 5856 5856 5856 5855 5853 5852 5852 5851 5849 5848 5847 5847 5846 5844 5844 5842 5841 5839 5839 5838 5838 5837 5837 5837 5837 5837 5837 5837 5838 5839 5839 5840 5840 5840 5841 5841 5841
5856 5856 5855 5855 5854 5854 5854 5854 5853 5852 5851 5850 5850 5848 5848 5845 5844 5844 5843 5842 5841 5840 5839 5838 5836 5835 5834 5834 5833 5833 5833 5833 5833 5833 5834 5835 5835 5836 5837 5837 5837 5837 5838 5837
5854 5853 5852 5852 5852 5851 5851 5850 5850 5849 5848 5847 5846 5844 5844 5842 5841 5840 5839 5839 5838 5837 5836 5835 5833 5832 5831 5830 5829 5829 5829 5830 5830 5830 5831 5832 5832 5833 5834 5834 5834 5834 5834 5834
5851 5850 5850 5849 5849 5849 5848 5847 5846 5845 5844 5844 5843 5841 5841 5839 5838 5837 5835 5835 5834 5833 5832 5831 5829 5828 5827 5826 5826 5826 5826 5827 5827 5827 5828 5829 5829 5830 5830 5830 5830 5830 5830 5830
5848 5848 5847 5846 5845 5846 5845 5844 5843 5842 5840 5840 5839 5837 5837 5835 5834 5832 5831 5831 5830 5829 5828 5827 5826 5824 5823 5822 5822 5822 5822 5823 5823 5824 5825 5826 5826 5826 5827 5827 5827 5827 5826 5826
5844 5845 5844 5843 5842 5841 5841 5840 5839 5838 5837 5836 5835 5832 5833 5831 5830 5829 5827 5827 5826 5825 5824 5823 5822 5821 5820 5819 5818 5819 5818 5819 5820 5821 5822 5822 5823 5823 5823 5823 5823 5823 5823 5822
5840 5841 5841 5840 5839 5838 5837 5836 5835 5834 5832 5832 5831 5830 5829 5827 5826 5825 5824 5823 5822 5821 5820 5819 5818 5817 5816 5815 5815 5815 5815 5816 5816 5818 5818 5819 5819 5820 5820 5820 5820 5819 5819 5819
5836 5836 5836 5836 5835 5834 5833 5832 5831 5830 5828 5827 5827 5826 5825 5824 5823 5822 5821 5820 5819 5818 5817 5815 5814 5813 5812 5812 5812 5811 5812 5812 5813 5814 5815 5815 5816 5816 5816 5816 5816 5816 5815 5815
5831 5831 5832 5831 5830 5829 5829 5828 5826 5825 5824 5823 5822 5824 5822 5820 5819 5818 5817 5816 5815 5814 5813 5812 5810 5809 5809 5808 5808 5808 5809 5809 5809 5810 5811 5811 5812 5812 5812 5812 5812 5812 5812 5811
5826 5826 5826 5826 5826 5825 5824 5823 5822 5822 5821 5819 5818 5821 5818 5816 5814 5813 5812 5811 5810 5810 5809 5808 5807 5806 5805 5804 5804 5805 5806 5806 5806 5806 5807 5807 5808 5808 5809 5808 5808 5808 5808 5808
5821 5821 5821 5821 5823 5821 5819 5818 5818 5817 5817 5815 5814 5817 5813 5811 5810 5809 5807 5806 5806 5805 5805 5804 5802 5802 5801 5800 5801 5801 5802 5802 5802 5803 5803 5804 5804 5805 5805 5805 5804 5805 5804 5804
5816 5815 5816 5816 5815 5814 5814 5814 5813 5813 5811 5810 5810 5810 5809 5807 5805 5804 5803 5802 5801 5800 5800 5799 5798 5797 5797 5796 5797 5797 5797 5798 5798 5799 5799 5800 5800 5801 5801 5801 5801 5801 5800 5800
5809 5809 5809 5809 5809 5808 5808 5808 5808 5807 5806 5805 5805 5804 5804 5803 5801 5800 5798 5798 5796 5795 5795 5795 5794 5793 5793 5793 5793 5793 5793 5794 5794 5795 5795 5796 5796 5796 5797 5797 5797 5797 5796 5796
5803 5803 5803 5803 5803 5802 5802 5802 5801 5801 5801 5800 5799 5799 5798 5797 5796 5794 5794 5793 5791 5791 5790 5790 5791 5790 5790 5790 5790 5790 5790 5790 5790 5791 5791 5792 5792 5792 5793 5793 5793 5792 5792 5791
5796 5796 5796 5796 5796 5795 5795 5795 5795 5795 5794 5794 5793 5794 5792 5792 5791 5790 5789 5788 5787 5786 5786 5785 5786 5786 5786 5786 5786 5786 5786 5786 5786 5787 5787 5788 5788 5789 5789 5788 5788 5788 5788 5787
5788 5788 5788 5788 5789 5788 5791 5790 5789 5788 5788 5787 5786 5786 5786 5785 5785 5784 5783 5782 5782 5781 5781 5781 5781 5781 5781 5781 5781 5781 5781 5782 5782 5782 5783 5783 5784 5784 5784 5784 5784 5784 5783 5782
5781 5781 5780 5780 5780 5780 5783 5783 5782 5781 5780 5781 5780 5779 5778 5778 5778 5777 5777 5777 5776 5776 5776 5776 5776 5776 5776 5776 5776 5776 5776 5777 5777 5778 5778 5779 5779 5780 5780 5779 5779 5779 5778 5778
5773 5773 5773 5772 5772 5773 5777 5776 5775 5775 5774 5774 5773 5772 5771 5771 5771 5771 5771 5770 5770 5770 5770 5770 5770 5770 5770 5770 5770 5771 5771 5771 5772 5772 5773 5774 5774 5774 5775 5774 5774 5774 5773 5773
5764 5764 5764 5764 5763 5764 5767 5767 5767 5767 5767 5767 5765 5765 5764 5764 5764 5765 5764 5763 5763 5763 5764 5764 5764 5763 5763 5764 5764 5764 5765 5765 5766 5766 5767 5768 5769 5769 5769 5769 5769 5768 5768 5768
5755 5755 5756 5756 5756 5758 5758 5758 5759 5758 5757 5757 5757 5757 5757 5756 5756 5756 5756 5756 5756 5756 5757 5757 5757 5757 5757 5757 5757 5757 5758 5759 5760 5760 5762 5763 5763 5763 5763 5763 5763 5763 5762 5762
5745 5746 5747 5748 5749 5749 5748 5749 5749 5748 5748 5749 5749 5749 5749 5749 5748 5748 5748 5748 5748 5749 5749 5749 5749 5750 5750 5750 5750 5750 5752 5752 5753 5754 5756 5757 5757 5758 5757 5757 5757 5757 5756 5756
5735 5736 5737 5737 5738 5739 5739 5739 5739 5739 5740 5740 5740 5740 5740 5740 5740 5740 5740 5740 5740 5741 5741 5741 5741 5742 5742 5743 5743 5744 5744 5746 5747 5748 5750 5751 5751 5751 5751 5751 5751 5751 5751 5751
5726 5726 5726 5727 5729 5729 5729 5730 5730 5730 5731 5731 5731 5731 5731 5731 5731 5731 5731 5732 5733 5733 5734 5734 5735 5735 5735 5736 5736 5737 5738 5740 5741 5742 5743 5744 5745 5745 5746 5746 5746 5745 5745 5745
5715 5716 5717 5718 5720 5719 5720 5720 5721 5721 5722 5722 5722 5722 5722 5722 5722 5722 5723 5724 5725 5725 5726 5727 5727 5728 5728 5729 5730 5731 5732 5733 5734 5735 5736 5737 5738 5739 5739 5739 5740 5739 5740 5740